sat.trackr.live / text

‹ back to catalog

STARLINK-32658

NORAD 62999 · 2025-031U

PAYLOAD ACTIVE UNKNOWN

§ Identity

Operator
Country
US
Launch date
2025-02-11
Launch site
AFETR
Launch vehicle
Mass (kg)
RCS (m²)

Purposes: comms

External: N2YO · Heavens-Above · Gunter

§ Orbital elements

Epoch: 2026-09-21T07:18:56.990592Z

Period
94.27 min
Inclination
42.9990°
Eccentricity
0.0001716
Mean motion
15.27587715 rev/d
Perigee alt
481.8 km
Apogee alt
484.2 km
Semi-major
6,861.2 km
B*
3.7019e-4
RAAN
118.4639°
Arg perigee
269.6279°
Mean anomaly
90.4375°
Rev number
9,101

§ Raw data

STARLINK-326581 62999U 25031U   26264.30482628  .00009941  00000+0  37019-3 0  99942 62999  42.9990 118.4639 0001716 269.6279  90.4375 15.27587715 91015

JSON: /api/v1/satellites/62999 · /tle

For live sub-satellite position, see the globe view (requires WebGL).

§ Visibility from observer

Set your observer location to see the next 7 days of passes ≥ 10°. The values pass through the URL so the page stays shareable.

No JS? Fill the form by hand. The geolocation button needs JavaScript.